Weather History for Petaluma, CA

Change the Weather History Date:

Sunday, January 5, 2014

  Actual Average (KAPC) Record (KAPC)
Temperature  
Mean Temperature 45 °F 45 °F  
Max Temperature 66 °F 54 °F 70 °F (2014)
Min Temperature 24 °F 37 °F 24 °F (2014)
Degree Days  
Heating Degree Days 20    
Month to date heating degree days  
Since 1 July heating degree days  
Cooling Degree Days 0    
Month to date cooling degree days  
Year to date cooling degree days  
Moisture  
Dew Point 26 °F    
Average Humidity 62    
Maximum Humidity 100    
Minimum Humidity 15    
Precipitation  
Precipitation 0.00 in - 2.75 in (1966)
Month to date precipitation  
Year to date precipitation  
Since 1 July precipitation  
Sea Level Pressure  
Sea Level Pressure 30.18 in    
Wind  
Wind Speed 2 mph (SSE)    
Max Wind Speed 9 mph    
Max Gust Speed -    
Visibility 10 miles    
Events      
T = Trace of Precipitation, MM = Missing Value Source: NWS Daily Summary

Daily Weather History Graph

Daily Weather History Graph

Search for Another Location

Airport:

Trip Planner

Search our weather history database for the weather conditions in past years. The results will help you decide how hot, cold, wet, or windy it might be!

Date:

Astronomy

Jan. 05, 2014 Rise Set
Actual Time 7:27 AM PST 5:04 PM PST
Civil Twilight 6:58 AM PST 5:33 PM PST
Nautical Twilight 6:25 AM PST 6:06 PM PST
Astronomical Twilight 5:53 AM PST 6:38 PM PST
Moon 10:16 AM PST (1/5) 10:33 PM PST (1/5)
Length of Visible Light 10h 35m
Length of Day
9h 37m
Waxing Crescent, 25% of the Moon is Illuminated
Jan 5
Waxing Crescent
Jan 7
First Quarter
Jan 15
Full
Jan 23
Last Quarter
Jan 30
New

Hourly Weather History & Observations

Time (PST) Temp. Windchill Dew Point Humidity Pressure Visibility Wind Dir Wind Speed Gust Speed Precip Events Conditions
12:15 AM 33.8 °F 29.6 °F 32.0 °F 93% 30.11 in 9.0 mi NNW 4.6 mph - N/A   Clear
12:35 AM 32.0 °F - 32.0 °F 100% 30.11 in 10.0 mi Calm Calm - N/A   Clear
12:55 AM 32.0 °F - 32.0 °F 100% 30.10 in 9.0 mi Calm Calm - N/A   Clear
1:15 AM 32.0 °F - 32.0 °F 100% 30.10 in 9.0 mi Calm Calm - N/A   Clear
1:35 AM 32.0 °F - 32.0 °F 100% 30.11 in 8.0 mi Calm Calm - N/A   Clear
1:55 AM 32.0 °F - 32.0 °F 100% 30.12 in 10.0 mi Calm Calm - N/A   Clear
2:15 AM 32.0 °F - 32.0 °F 100% 30.12 in 10.0 mi Calm Calm - N/A   Clear
2:35 AM 32.0 °F - 32.0 °F 100% 30.13 in 9.0 mi Calm Calm - N/A   Clear
2:55 AM 30.2 °F - 30.2 °F 100% 30.13 in 9.0 mi Calm Calm - N/A   Clear
3:15 AM 30.2 °F 26.7 °F 30.2 °F 100% 30.13 in 7.0 mi WNW 3.5 mph - N/A   Clear
3:35 AM 30.2 °F 26.7 °F 30.2 °F 100% 30.13 in 9.0 mi WNW 3.5 mph - N/A   Clear
3:55 AM 28.4 °F - 28.4 °F 100% 30.13 in 7.0 mi Calm Calm - N/A   Clear
4:15 AM 28.4 °F - 28.4 °F 100% 30.14 in 8.0 mi Calm Calm - N/A   Clear
4:35 AM 28.4 °F - 28.4 °F 100% 30.14 in 8.0 mi Calm Calm - N/A   Clear
4:55 AM 28.4 °F - 28.4 °F 100% 30.14 in 10.0 mi Calm Calm - N/A   Clear
5:15 AM 28.4 °F 24.6 °F 28.4 °F 100% 30.14 in 10.0 mi West 3.5 mph - N/A   Clear
5:35 AM 26.6 °F - 26.6 °F 100% 30.15 in 10.0 mi Calm Calm - N/A   Clear
5:55 AM 26.6 °F 22.6 °F 26.6 °F 100% 30.15 in 10.0 mi West 3.5 mph - N/A   Clear
6:15 AM 28.4 °F - 28.4 °F 100% 30.16 in 10.0 mi Calm Calm - N/A   Clear
6:35 AM 26.6 °F - 26.6 °F 100% 30.16 in 10.0 mi Calm Calm - N/A   Clear
6:55 AM 26.6 °F - 26.6 °F 100% 30.17 in 10.0 mi Calm Calm - N/A   Clear
7:15 AM 24.8 °F - 24.8 °F 100% 30.17 in 10.0 mi Calm Calm - N/A   Clear
7:35 AM 26.6 °F - 26.6 °F 100% 30.18 in 9.0 mi Calm Calm - N/A   Clear
7:55 AM 24.8 °F - 24.8 °F 100% 30.19 in 9.0 mi Calm Calm - N/A   Clear
8:15 AM 28.4 °F - 28.4 °F 100% 30.20 in 10.0 mi Calm Calm - N/A   Clear
8:35 AM 32.0 °F - 32.0 °F 100% 30.20 in 10.0 mi Calm Calm - N/A   Clear
8:55 AM 35.6 °F 32.8 °F 33.8 °F 93% 30.21 in 10.0 mi WNW 3.5 mph - N/A   Clear
9:15 AM 37.4 °F - 33.8 °F 87% 30.22 in 10.0 mi Calm Calm - N/A   Clear
9:35 AM 42.8 °F - 32.0 °F 66% 30.23 in 10.0 mi Calm Calm - N/A   Clear
9:55 AM 46.4 °F - 32.0 °F 57% 30.23 in 10.0 mi Calm Calm - N/A   Clear
10:15 AM 50.0 °F - 32.0 °F 50% 30.23 in 10.0 mi East 3.5 mph - N/A   Clear
10:35 AM 53.6 °F - 32.0 °F 44% 30.23 in 10.0 mi South 6.9 mph - N/A   Clear
10:55 AM 55.4 °F - 32.0 °F 41% 30.23 in 10.0 mi SSE 6.9 mph - N/A   Clear
11:15 AM 57.2 °F - 28.4 °F 33% 30.22 in 10.0 mi SSE 5.8 mph - N/A   Clear
11:35 AM 59.0 °F - 26.6 °F 29% 30.21 in 10.0 mi SSE 8.1 mph - N/A   Clear
11:55 AM 60.8 °F - 23.0 °F 23% 30.20 in 10.0 mi SSE 6.9 mph - N/A   Clear
12:15 PM 62.6 °F - 19.4 °F 19% 30.19 in 10.0 mi SSE 8.1 mph - N/A   Clear
12:35 PM 62.6 °F - 19.4 °F 19% 30.18 in 10.0 mi South 8.1 mph - N/A   Clear
12:55 PM 64.4 °F - 15.8 °F 15% 30.17 in 10.0 mi South 9.2 mph - N/A   Clear
1:15 PM 64.4 °F - 17.6 °F 16% 30.16 in 10.0 mi South 9.2 mph - N/A   Clear
1:35 PM 64.4 °F - 17.6 °F 16% 30.16 in 10.0 mi South 6.9 mph - N/A   Clear
1:55 PM 66.2 °F - 17.6 °F 15% 30.16 in 10.0 mi SSE 8.1 mph - N/A   Clear
2:15 PM 66.2 °F - 19.4 °F 17% 30.16 in 10.0 mi South 6.9 mph - N/A   Clear
2:35 PM 66.2 °F - 19.4 °F 17% 30.16 in 10.0 mi SSE 5.8 mph - N/A   Clear
2:55 PM 66.2 °F - 19.4 °F 17% 30.16 in 10.0 mi SE 6.9 mph - N/A   Clear
3:15 PM 64.4 °F - 19.4 °F 18% 30.16 in 10.0 mi SSE 5.8 mph - N/A   Clear
3:35 PM 64.4 °F - 19.4 °F 18% 30.16 in 10.0 mi SE 6.9 mph - N/A   Clear
3:55 PM 64.4 °F - 19.4 °F 18% 30.16 in 10.0 mi SSE 9.2 mph - N/A   Clear
4:15 PM 62.6 °F - 21.2 °F 20% 30.17 in 10.0 mi SSE 5.8 mph - N/A   Clear
4:35 PM 59.0 °F - 24.8 °F 27% 30.16 in 10.0 mi East 4.6 mph - N/A   Clear
4:55 PM 57.2 °F - 24.8 °F 29% 30.17 in 10.0 mi Calm Calm - N/A   Clear
5:15 PM 55.4 °F - 23.0 °F 29% 30.17 in 10.0 mi East 3.5 mph - N/A   Clear
5:35 PM 50.0 °F - 24.8 °F 37% 30.18 in 10.0 mi East 4.6 mph - N/A   Clear
5:55 PM 50.0 °F - 24.8 °F 37% 30.18 in 10.0 mi East 4.6 mph - N/A   Clear
6:15 PM 46.4 °F - 24.8 °F 43% 30.19 in 10.0 mi Calm Calm - N/A   Clear
6:35 PM 44.6 °F - 24.8 °F 46% 30.19 in 10.0 mi Calm Calm - N/A   Clear
6:55 PM 44.6 °F - 23.0 °F 43% 30.20 in 10.0 mi Calm Calm - N/A   Clear
7:15 PM 41.0 °F - 24.8 °F 53% 30.20 in 10.0 mi Calm Calm - N/A   Clear
7:35 PM 41.0 °F - 23.0 °F 49% 30.20 in 10.0 mi Calm Calm - N/A   Clear
7:55 PM 41.0 °F - 23.0 °F 49% 30.20 in 10.0 mi Calm Calm - N/A   Partly Cloudy
8:15 PM 41.0 °F - 24.8 °F 53% 30.20 in 10.0 mi Calm Calm - N/A   Partly Cloudy
8:35 PM 41.0 °F - 24.8 °F 53% 30.21 in 10.0 mi Calm Calm - N/A   Clear
8:55 PM 39.2 °F - 24.8 °F 56% 30.21 in 10.0 mi Calm Calm - N/A   Clear
9:15 PM 37.4 °F - 23.0 °F 56% 30.21 in 10.0 mi Calm Calm - N/A   Clear
9:35 PM 37.4 °F - 24.8 °F 60% 30.22 in 10.0 mi Calm Calm - N/A   Partly Cloudy
9:55 PM 39.2 °F - 23.0 °F 52% 30.23 in 10.0 mi Calm Calm - N/A   Clear
10:15 PM 37.4 °F - 24.8 °F 60% 30.23 in 10.0 mi Calm Calm - N/A   Clear
10:35 PM 35.6 °F - 23.0 °F 60% 30.23 in 10.0 mi Calm Calm - N/A   Clear
10:55 PM 35.6 °F 32.8 °F 24.8 °F 65% 30.23 in 10.0 mi WSW 3.5 mph - N/A   Clear
11:15 PM 35.6 °F 32.8 °F 23.0 °F 60% 30.23 in 10.0 mi NW 3.5 mph - N/A   Clear
11:35 PM 32.0 °F - 24.8 °F 75% 30.23 in 10.0 mi Calm Calm - N/A   Clear
11:55 PM 35.6 °F - 23.0 °F 60% 30.23 in 10.0 mi Calm Calm - N/A   Clear